Terminal Aerodrome Forecast
Issued by NWS Cleveland, OH

Home | Current Version | Previous Version | Graphics & Text | Print | Product List | Glossary On
Versions: 1 2 3 4 5 6 7 8 9 10 11 12
000
FTUS41 KCLE 231120
TAFERI
TAF
KERI 231120Z 2312/2412 18004KT P6SM SKC
     FM231500 34006KT P6SM SCT040
     FM240100 VRB03KT P6SM SKC=

USA.gov is the U.S. government's official web portal to all federal, state and local government web resources and services.